GFSNE_850_dewp_240.txt.gz
Dewpoint
-1 0 0 0 1 1 1 0 1 2 1 1 1 1 2 1 1 1 1 1 1 1 1 1 1 1 2 2 2 3 3 4 3 3 3 4 5 5
0 0 0 0 1 1 1 0 0 1 2 1 0 0 1 0 0 1 1 1 2 2 1 1 1 1 1 1 1 1 3 4 5 4 3 3 4 5
0 0 0 1 1 1 0 0 0 1 2 1 1 0 1 1 1 2 2 2 2 1 1 0 0 0 1 2 2 2 2 4 4 4 4 3 4 5
-1 1 1 2 2 2 2 2 1 2 2 2 1 0 1 1 1 1 3 2 3 2 2 1 2 1 1 2 2 2 2 3 4 3 2 3 4 4
1 1 1 2 2 2 2 2 2 2 1 2 1 2 2 1 3 3 3 3 2 2 3 2 2 1 1 1 1 0 0 2 3 4 4 4 5 6
1 2 2 2 2 2 2 2 2 2 2 2 2 1 2 3 3 2 2 3 2 2 2 1 1 1 1 0 1 1 1 1 2 2 3 3 4 4
1 1 1 1 1 2 1 0 -0 1 1 1 1 2 2 2 2 2 2 2 2 2 1 1 0 -0 -0 -0 -0 -0 -0 -0 0 1 1 2 2 2
0 0 0 0 0 0 -0 -1 -0 1 1 1 1 1 1 1 1 1 1 1 1 1 -0 -0 -2 -2 -2 -2 -2 -2 -2 -2 -1 -1 -0 0 1 1
-0 -0 -1 -1 -1 -1 -1 -0 -0 0 0 1 1 0 0 0 0 0 0 -0 -1 -2 -2 -3 -3 -3 -3 -4 -4 -4 -4 -4 -4 -4 -3 -3 -3 -2
-0 -1 -2 -1 -2 -1 -1 -1 -2 -4 -6 -7 -6 -5 -6 -6 -5 -5 -7 -7 -6 -7 -6 -5 -6 -5 -6 -5 -5 -5 -4 -5 -5 -5 -5 -5 -5 -5
-1 -2 -3 -2 -4 -4 -4 -7 -9 -10 -10 -10 -11 -13 -14 -14 -13 -12 -12 -13 -12 -12 -13 -9 -11 -11 -12 -13 -13 -13 -13 -14 -13 -12 -12 -12 -12 -12
-2 -6 -9 -11 -11 -11 -11 -10 -10 -11 -12 -13 -13 -14 -13 -13 -13 -13 -13 -13 -13 -15 -14 -14 -14 -14 -13 -13 -13 -13 -13 -13 -13 -13 -13 -13 -12 -12
-5 -13 -11 -10 -10 -11 -11 -11 -12 -14 -14 -15 -15 -14 -14 -14 -14 -14 -14 -14 -15 -14 -14 -14 -14 -14 -14 -13 -14 -14 -14 -14 -14 -15 -15 -15 -14 -14
-11 -9 -10 -11 -11 -11 -11 -13 -15 -15 -15 -14 -13 -13 -14 -14 -12 -12 -12 -12 -13 -13 -14 -14 -14 -14 -13 -13 -13 -13 -12 -12 -13 -13 -13 -13 -13 -14
-7 -10 -10 -10 -10 -11 -13 -14 -14 -14 -13 -13 -14 -13 -11 -11 -11 -11 -11 -12 -12 -12 -13 -15 -18 -19 -20 -20 -19 -19 -20 -19 -17 -19 -20 -20 -20 -20
-9 -10 -8 -8 -8 -10 -12 -12 -12 -12 -14 -15 -12 -11 -12 -17 -19 -20 -19 -19 -19 -19 -21 -21 -21 -21 -21 -21 -20 -19 -19 -18 -18 -17 -18 -19 -18 -17
-8 -6 -5 -5 -6 -8 -10 -11 -13 -14 -14 -12 -12 -16 -20 -20 -21 -22 -22 -22 -21 -21 -20 -19 -18 -18 -18 -18 -17 -17 -16 -16 -16 -16 -16 -18 -18 -17
-6 -4 -4 -5 -4 -7 -10 -13 -15 -15 -12 -13 -19 -20 -22 -22 -21 -20 -20 -20 -19 -18 -17 -17 -18 -17 -17 -17 -17 -16 -16 -16 -16 -15 -15 -15 -17 -17
-5 -5 -4 -4 -6 -9 -13 -15 -15 -11 -14 -20 -21 -22 -21 -20 -19 -18 -17 -16 -16 -16 -16 -16 -16 -16 -16 -17 -16 -15 -15 -15 -15 -16 -15 -14 -15 -16
-4 -5 -5 -5 -9 -13 -14 -14 -11 -17 -20 -21 -21 -20 -19 -18 -17 -16 -16 -16 -15 -15 -15 -15 -15 -14 -13 -12 -13 -16 -14 -15 -14 -15 -15 -14 -14 -15
-6 -4 -8 -12 -13 -14 -13 -12 -18 -20 -22 -21 -20 -18 -17 -16 -16 -15 -15 -14 -15 -15 -14 -14 -13 -12 -12 -13 -14 -16 -16 -14 -14 -13 -13 -13 -13 -14
-5 -10 -12 -12 -14 -12 -14 -19 -21 -21 -20 -19 -18 -17 -15 -15 -15 -15 -14 -13 -14 -14 -14 -13 -13 -12 -12 -13 -14 -14 -14 -15 -14 -14 -13 -12 -12 -11
-5 -11 -12 -13 -11 -15 -19 -22 -21 -20 -19 -18 -16 -15 -14 -14 -13 -13 -13 -13 -13 -14 -13 -13 -13 -13 -12 -13 -14 -14 -14 -14 -14 -15 -15 -13 -12 -11

GFSNE_850_dewp_243.txt.gz
Dewpoint
-2 -1 0 0 0 0 0 0 1 1 2 -0 0 0 1 2 1 0 0 1 1 2 2 1 1 1 1 0 0 0 1 1 2 3 5 4 4 4
-1 -1 0 0 0 0 0 -0 0 1 2 0 -1 -0 -0 0 1 1 1 1 1 2 2 1 1 0 0 0 1 2 1 1 2 2 4 4 4 4
-1 -1 -0 0 -0 -0 0 1 1 2 1 1 1 1 1 2 2 2 1 2 2 3 2 0 0 -0 1 1 1 1 1 1 0 1 2 3 3 3
0 -1 -1 1 0 1 2 2 2 2 2 2 2 1 1 2 2 2 2 1 2 2 3 2 0 1 -0 -0 1 0 0 0 0 2 3 4 4 4
0 1 1 1 1 1 2 2 2 2 2 2 2 1 2 1 2 3 3 2 2 2 2 2 2 1 -0 -0 -0 0 0 -0 -0 1 2 2 1 2
-0 0 1 1 1 1 1 1 1 0 0 1 2 1 1 2 2 2 2 2 2 2 1 1 1 0 -0 -1 -1 -1 -1 -1 -1 0 1 1 2 2
0 0 1 1 1 0 0 0 -1 -1 0 1 1 1 2 2 2 1 1 1 1 1 0 0 -0 -1 -2 -1 -2 -2 -2 -2 -2 -1 -1 -1 0 1
-0 -0 -0 -0 0 -1 -1 -1 -1 0 1 1 1 1 1 1 1 1 1 0 0 -0 -1 -2 -3 -3 -3 -3 -3 -3 -4 -5 -5 -4 -4 -3 -3 -3
-0 -0 -0 -2 -2 -1 -1 -1 -0 -0 -0 -0 0 -1 -1 -1 -1 -1 -1 -2 -4 -3 -4 -5 -5 -6 -6 -6 -6 -6 -6 -7 -7 -7 -9 -9 -10 -9
-1 -1 -2 -2 -2 -2 -2 -3 -6 -8 -9 -9 -9 -11 -11 -9 -8 -9 -10 -10 -9 -9 -7 -8 -10 -10 -12 -11 -11 -13 -14 -14 -14 -14 -14 -14 -14 -14
-1 -2 -2 -2 -4 -5 -7 -8 -9 -9 -10 -11 -12 -12 -12 -12 -12 -13 -13 -13 -13 -14 -13 -13 -14 -13 -12 -13 -13 -13 -13 -14 -14 -14 -14 -14 -14 -14
-2 -3 -6 -7 -9 -10 -10 -11 -11 -13 -14 -14 -14 -14 -14 -14 -14 -14 -14 -14 -14 -14 -14 -14 -14 -14 -13 -13 -14 -14 -14 -14 -15 -15 -15 -15 -14 -14
-3 -10 -12 -11 -11 -11 -9 -11 -13 -15 -15 -15 -14 -13 -13 -14 -14 -13 -12 -12 -13 -14 -13 -14 -14 -14 -14 -14 -14 -13 -13 -13 -14 -15 -16 -16 -17 -19
-9 -9 -9 -11 -11 -11 -12 -13 -15 -15 -14 -13 -13 -14 -14 -12 -12 -13 -15 -15 -15 -15 -15 -15 -15 -17 -18 -19 -18 -18 -20 -21 -21 -22 -22 -21 -21 -21
-5 -6 -11 -11 -11 -11 -13 -13 -13 -13 -12 -13 -14 -14 -12 -13 -20 -20 -20 -19 -19 -19 -21 -22 -22 -22 -22 -22 -21 -21 -21 -20 -20 -19 -19 -19 -19 -19
-5 -8 -6 -5 -5 -10 -12 -11 -11 -12 -14 -14 -13 -12 -16 -21 -21 -21 -22 -22 -21 -22 -22 -21 -20 -20 -19 -19 -18 -18 -17 -17 -18 -18 -19 -18 -18 -17
-6 -5 -4 -4 -5 -5 -8 -10 -12 -14 -14 -13 -12 -18 -21 -22 -22 -22 -21 -21 -20 -19 -18 -17 -18 -18 -18 -17 -17 -17 -16 -16 -16 -17 -18 -19 -19 -17
-5 -5 -4 -4 -4 -4 -8 -11 -14 -15 -12 -13 -20 -21 -22 -21 -21 -20 -19 -18 -17 -17 -17 -17 -17 -16 -17 -17 -17 -16 -16 -16 -16 -17 -17 -18 -19 -17
-5 -5 -4 -4 -5 -6 -10 -13 -15 -12 -14 -20 -21 -22 -21 -20 -19 -18 -17 -16 -16 -15 -15 -16 -16 -15 -16 -16 -16 -15 -15 -15 -16 -16 -16 -15 -15 -17
-5 -5 -5 -5 -5 -10 -13 -14 -12 -14 -20 -22 -22 -20 -19 -18 -17 -16 -16 -16 -15 -15 -14 -14 -15 -14 -14 -13 -13 -16 -13 -14 -14 -15 -15 -15 -15 -16
-5 -5 -5 -6 -11 -13 -14 -12 -14 -20 -22 -22 -20 -19 -17 -16 -16 -16 -15 -14 -14 -14 -14 -14 -13 -13 -13 -13 -13 -14 -15 -14 -14 -14 -14 -14 -14 -14
-7 -5 -5 -10 -12 -13 -12 -15 -20 -22 -21 -20 -19 -17 -16 -15 -15 -14 -14 -13 -13 -13 -13 -13 -13 -13 -13 -13 -14 -14 -15 -15 -15 -15 -13 -13 -12 -12
-5 -5 -5 -11 -13 -12 -15 -20 -22 -21 -20 -19 -17 -15 -15 -14 -14 -13 -13 -13 -13 -13 -12 -13 -13 -13 -13 -13 -13 -14 -14 -15 -16 -15 -14 -13 -12 -12

GFSNE_850_dewp_246.txt.gz
Dewpoint
-2 -1 -0 0 0 0 -0 -0 1 1 2 1 1 2 1 2 2 1 0 -0 -0 1 1 3 2 1 1 0 0 0 1 1 1 1 1 2 3 4
-1 -1 -0 0 0 0 -0 -0 1 1 1 1 0 -0 0 2 1 1 1 -0 0 2 2 3 2 1 0 0 1 1 1 1 1 1 0 2 3 3
-0 -1 -0 -0 1 1 1 1 2 2 2 1 0 1 1 2 2 2 1 1 1 2 2 2 2 1 -1 -0 0 0 0 0 -0 -0 1 2 3 3
-0 0 1 1 2 1 1 2 2 1 2 1 1 2 1 1 1 2 2 2 2 2 2 2 2 2 1 1 -0 -1 -0 -0 -1 0 0 1 2 2
-0 -0 0 1 0 1 1 2 2 2 2 2 2 2 2 2 1 2 2 2 2 2 1 1 1 1 0 -0 -1 -1 -1 -1 -1 -1 -1 0 1 2
-1 -1 -0 1 0 1 1 0 0 0 -0 -0 0 1 2 1 2 2 2 2 2 1 1 1 1 0 -0 -1 -2 -2 -2 -2 -2 -2 -1 -1 -1 0
-1 0 0 0 0 0 0 -0 -1 -1 -0 0 1 1 1 1 1 1 1 1 1 0 0 -0 -0 -2 -2 -2 -3 -3 -4 -4 -4 -4 -4 -4 -4 -3
-1 -1 -0 -0 -1 -1 -1 -1 -1 0 0 1 1 0 1 1 1 0 0 -0 -1 -1 -1 -3 -4 -5 -6 -7 -7 -6 -5 -6 -7 -9 -11 -12 -13 -13
-1 -0 -1 -1 -2 -2 -1 -1 -2 -1 -1 -1 -1 -1 -3 -2 -2 -2 -2 -3 -4 -3 -5 -6 -7 -7 -7 -6 -6 -9 -11 -13 -14 -14 -14 -15 -15 -15
-1 -1 -1 -2 -2 -2 -3 -6 -9 -9 -9 -11 -12 -12 -11 -9 -9 -10 -10 -10 -11 -11 -7 -9 -12 -11 -12 -13 -13 -13 -14 -14 -14 -15 -15 -16 -16 -16
-1 -2 -2 -2 -3 -4 -7 -8 -9 -10 -11 -13 -13 -14 -14 -14 -14 -13 -14 -13 -13 -14 -14 -13 -13 -13 -13 -12 -13 -13 -14 -15 -15 -15 -14 -14 -14 -15
-2 -3 -4 -4 -5 -7 -10 -11 -12 -14 -14 -14 -14 -13 -13 -14 -14 -14 -14 -14 -14 -14 -14 -14 -14 -14 -13 -13 -13 -14 -14 -14 -14 -15 -18 -21 -24 -25
-4 -9 -11 -11 -11 -10 -7 -8 -12 -15 -15 -14 -13 -13 -14 -14 -13 -12 -13 -14 -14 -14 -14 -14 -14 -14 -13 -13 -13 -14 -16 -21 -23 -23 -23 -23 -22 -22
-8 -10 -10 -11 -10 -8 -12 -13 -14 -14 -13 -13 -13 -14 -14 -12 -12 -19 -20 -19 -18 -18 -20 -21 -21 -22 -22 -22 -19 -21 -22 -23 -22 -21 -20 -20 -20 -20
-8 -6 -10 -9 -7 -9 -10 -13 -13 -12 -12 -13 -14 -14 -13 -14 -22 -22 -22 -22 -22 -22 -23 -23 -23 -22 -22 -21 -20 -20 -20 -19 -19 -19 -19 -19 -19 -19
-5 -6 -6 -5 -5 -6 -11 -11 -11 -12 -13 -14 -14 -12 -14 -21 -23 -23 -23 -23 -22 -22 -22 -20 -19 -19 -19 -18 -18 -17 -17 -18 -19 -18 -19 -18 -18 -17
-5 -5 -4 -4 -4 -4 -5 -8 -10 -13 -15 -14 -12 -16 -21 -22 -22 -22 -21 -21 -20 -19 -18 -18 -18 -18 -18 -18 -17 -17 -16 -17 -17 -18 -18 -18 -17 -16
-6 -5 -5 -5 -4 -5 -5 -8 -12 -14 -14 -12 -16 -21 -22 -22 -21 -20 -19 -18 -18 -17 -17 -16 -17 -17 -17 -17 -17 -16 -16 -16 -17 -17 -16 -16 -17 -16
-7 -5 -5 -5 -5 -5 -6 -11 -13 -14 -12 -17 -21 -22 -21 -20 -19 -18 -17 -17 -16 -16 -15 -15 -15 -15 -14 -11 -16 -15 -15 -16 -16 -16 -15 -15 -16 -17
-6 -5 -5 -5 -5 -6 -10 -12 -14 -12 -15 -21 -22 -21 -20 -19 -18 -17 -16 -15 -15 -15 -15 -14 -14 -14 -14 -13 -13 -15 -14 -15 -15 -15 -15 -15 -15 -16
-8 -6 -5 -5 -5 -9 -12 -13 -12 -14 -20 -22 -21 -20 -19 -17 -17 -16 -15 -14 -14 -14 -14 -13 -13 -13 -13 -13 -13 -15 -15 -15 -15 -15 -14 -14 -14 -15
-7 -6 -6 -5 -5 -8 -12 -13 -12 -20 -22 -21 -20 -19 -17 -16 -15 -15 -14 -13 -13 -13 -13 -13 -13 -13 -12 -12 -13 -14 -15 -16 -15 -14 -13 -13 -13 -13
-6 -6 -6 -5 -5 -10 -13 -12 -18 -22 -21 -20 -19 -17 -16 -15 -14 -13 -13 -13 -13 -13 -12 -12 -12 -12 -12 -12 -13 -13 -14 -14 -14 -14 -14 -13 -13 -13

GFSNE_850_dewp_249.txt.gz
Dewpoint
-3 -2 1 2 0 0 0 -0 0 1 0 0 1 2 2 1 1 -0 -1 -1 -0 -1 -0 0 -0 0 2 1 0 0 0 1 1 1 1 0 1 2
-1 -1 -1 2 1 0 -0 -0 1 1 1 1 1 1 1 -1 -0 0 -1 1 0 -1 0 2 2 2 2 0 -1 0 0 0 0 0 -0 0 1 2
1 1 1 1 1 1 1 1 1 1 2 -0 -0 0 2 2 1 1 1 1 2 1 1 2 2 2 2 1 -0 -0 -1 -1 -1 -0 -0 1 1 2
-0 -0 0 0 0 0 0 0 1 1 2 1 2 2 1 2 1 1 2 2 1 2 2 2 2 1 1 1 0 -0 -1 -1 -1 -1 -1 -1 -0 1
-1 -1 -1 -0 -0 0 0 0 1 0 1 1 1 1 2 2 1 2 2 2 2 1 1 1 0 0 0 0 -0 -1 -1 -2 -2 -2 -2 -2 -1 -1
-2 -2 -1 -1 0 0 0 1 0 -0 -0 -0 -0 0 1 1 1 1 1 1 1 1 1 0 0 -0 -0 -1 -2 -2 -3 -3 -3 -3 -3 -3 -2 -2
-2 -2 -1 -0 0 0 -0 -0 -1 -2 -1 -0 0 0 0 1 1 0 0 0 0 -0 -0 -0 -1 -2 -2 -3 -3 -4 -6 -5 -5 -5 -7 -9 -10 -12
-2 -2 -1 -0 -0 -1 -1 -2 -2 -1 -0 0 0 -0 -0 -0 -0 -0 -0 -1 -1 -1 -1 -3 -4 -6 -7 -7 -6 -6 -7 -10 -11 -13 -14 -14 -15 -15
-1 -1 -1 -1 -1 -2 -2 -1 -3 -2 -1 -1 -1 -3 -4 -3 -4 -4 -5 -5 -4 -3 -5 -6 -7 -8 -8 -8 -8 -11 -13 -14 -14 -14 -15 -15 -15 -15
-1 -1 -1 -1 -2 -2 -2 -5 -7 -9 -12 -12 -12 -12 -11 -11 -11 -11 -11 -11 -12 -12 -9 -7 -12 -13 -12 -12 -13 -13 -13 -14 -14 -15 -15 -15 -15 -16
-2 -2 -1 -2 -2 -3 -5 -7 -9 -12 -13 -14 -14 -14 -13 -13 -13 -14 -14 -14 -13 -14 -14 -13 -13 -13 -13 -13 -12 -12 -14 -14 -14 -14 -16 -21 -24 -25
-2 -2 -2 -2 -3 -5 -8 -9 -13 -14 -14 -14 -13 -13 -13 -14 -14 -13 -12 -13 -13 -13 -13 -14 -14 -14 -13 -10 -11 -13 -13 -14 -16 -22 -23 -24 -24 -23
-3 -4 -5 -6 -7 -10 -11 -10 -13 -14 -14 -13 -13 -13 -14 -14 -13 -12 -16 -19 -17 -16 -16 -16 -17 -16 -16 -15 -15 -17 -18 -21 -22 -22 -21 -21 -21 -21
-4 -6 -11 -11 -12 -8 -8 -13 -14 -14 -13 -12 -12 -14 -15 -14 -13 -18 -23 -22 -21 -21 -22 -23 -23 -23 -23 -22 -19 -20 -21 -21 -19 -19 -20 -20 -19 -19
-5 -7 -9 -11 -9 -5 -6 -12 -13 -12 -12 -13 -14 -15 -14 -13 -18 -23 -24 -24 -23 -23 -23 -22 -22 -21 -20 -20 -20 -19 -19 -19 -18 -18 -19 -19 -19 -19
-6 -6 -6 -6 -4 -4 -7 -12 -9 -10 -13 -14 -15 -14 -12 -17 -23 -24 -23 -23 -22 -22 -21 -20 -19 -18 -18 -18 -18 -18 -18 -18 -18 -18 -18 -18 -18 -18
-5 -5 -5 -4 -4 -4 -5 -5 -8 -11 -14 -15 -14 -12 -17 -22 -23 -22 -22 -21 -20 -19 -19 -18 -17 -18 -18 -18 -18 -17 -17 -18 -17 -17 -17 -18 -17 -17
-7 -5 -4 -4 -4 -4 -5 -5 -9 -13 -15 -14 -12 -16 -22 -23 -22 -21 -20 -19 -19 -17 -17 -17 -17 -17 -17 -16 -14 -17 -16 -16 -16 -16 -16 -16 -17 -16
-8 -8 -5 -5 -5 -5 -5 -7 -11 -14 -14 -12 -15 -22 -22 -21 -21 -20 -19 -18 -18 -17 -16 -16 -16 -16 -15 -15 -16 -15 -15 -15 -16 -16 -16 -16 -16 -16
-9 -8 -7 -5 -5 -5 -5 -8 -12 -13 -13 -13 -21 -23 -21 -20 -19 -18 -17 -17 -16 -15 -15 -14 -12 -13 -13 -13 -14 -16 -13 -15 -15 -15 -16 -16 -16 -16
-9 -8 -7 -5 -5 -5 -5 -9 -12 -13 -12 -18 -23 -22 -20 -19 -18 -17 -16 -14 -12 -14 -14 -13 -13 -13 -13 -13 -14 -15 -15 -14 -14 -14 -14 -14 -14 -15
-8 -8 -8 -5 -6 -5 -5 -7 -13 -12 -15 -22 -22 -21 -19 -17 -16 -15 -14 -14 -13 -13 -13 -13 -13 -12 -12 -12 -12 -13 -13 -14 -14 -14 -14 -13 -12 -13
-8 -7 -6 -6 -6 -6 -6 -8 -12 -13 -20 -22 -21 -19 -17 -16 -15 -14 -14 -13 -13 -13 -13 -13 -12 -12 -11 -11 -11 -12 -12 -12 -13 -13 -13 -13 -13 -12

GFSNE_850_dewp_252.txt.gz
Dewpoint
-4 -4 -3 -0 -0 -1 -0 0 -0 1 -0 -0 1 2 3 3 1 -1 -1 -1 -1 -1 -2 -1 -1 -1 -1 -0 1 1 -0 -0 0 0 0 1 2 1
-4 -3 -1 0 1 1 -0 -0 -1 -0 1 -1 -1 0 1 1 0 -1 -1 -1 -0 -1 -2 -1 -0 0 1 1 1 1 -1 -1 -1 -1 -1 1 1 2
-3 -1 0 1 1 0 0 1 1 1 1 1 1 1 2 2 2 2 1 1 1 2 2 2 2 2 2 1 1 -1 -1 -1 -2 -2 -1 -1 -0 1
-0 0 -0 0 0 -0 0 0 0 0 1 1 1 0 0 1 2 1 1 1 1 1 1 1 1 0 1 1 1 0 -0 -2 -1 -2 -1 -2 -2 -1
-2 -1 -1 -1 -1 -1 -0 0 -0 0 1 1 0 -1 -0 1 1 1 1 1 1 0 1 0 -0 0 0 -0 -0 -1 -2 -2 -2 -3 -2 -2 -2 -1
-2 -1 -1 -1 -1 -0 0 -1 0 -1 -1 -1 -1 -0 0 0 1 1 1 1 0 0 -0 -0 -0 -1 -0 -1 -2 -2 -3 -3 -3 -3 -3 -4 -4 -5
-2 -2 -2 -2 -1 -0 -0 -1 -1 -1 -2 -1 -0 -0 0 0 0 0 0 0 -0 -0 -0 -0 -1 -1 -2 -4 -5 -5 -6 -5 -7 -10 -13 -14 -15 -15
-2 -2 -2 -1 -0 -1 -1 -2 -2 -2 -1 -0 -0 -0 -0 -0 -0 -0 -0 -1 -1 -1 -2 -2 -5 -7 -7 -7 -7 -6 -9 -12 -13 -14 -14 -15 -15 -16
-2 -1 -1 -1 -1 -1 -2 -2 -4 -3 -2 -1 -1 -3 -4 -5 -6 -7 -8 -8 -6 -4 -5 -6 -8 -8 -9 -10 -10 -12 -13 -13 -14 -14 -15 -15 -15 -16
-2 -1 -1 -1 -1 -2 -2 -5 -8 -11 -12 -12 -12 -11 -11 -12 -12 -12 -11 -12 -12 -13 -12 -8 -9 -13 -13 -12 -12 -13 -13 -13 -14 -15 -14 -16 -20 -24
-2 -2 -1 -1 -2 -3 -4 -8 -10 -12 -13 -13 -14 -13 -13 -13 -14 -14 -14 -13 -13 -13 -13 -14 -13 -13 -14 -14 -13 -12 -12 -13 -14 -15 -20 -24 -24 -24
-3 -2 -2 -2 -2 -3 -6 -8 -13 -14 -14 -13 -13 -13 -14 -14 -14 -13 -12 -13 -15 -15 -14 -15 -15 -16 -15 -12 -10 -14 -14 -16 -20 -22 -23 -23 -22 -21
-3 -3 -3 -3 -3 -5 -9 -10 -10 -14 -14 -13 -12 -13 -14 -14 -14 -13 -17 -22 -23 -20 -19 -20 -22 -22 -21 -21 -20 -21 -18 -21 -22 -21 -20 -20 -20 -20
-4 -5 -10 -10 -10 -10 -6 -9 -13 -14 -14 -12 -12 -13 -15 -14 -13 -16 -22 -24 -23 -23 -23 -23 -23 -23 -23 -23 -21 -20 -19 -19 -19 -19 -19 -19 -19 -19
-5 -7 -10 -11 -10 -7 -5 -6 -10 -13 -12 -12 -13 -15 -15 -13 -15 -22 -24 -24 -23 -23 -22 -22 -21 -20 -20 -19 -19 -18 -19 -18 -18 -18 -18 -19 -19 -19
-6 -7 -7 -8 -6 -5 -5 -5 -10 -9 -8 -13 -15 -15 -13 -14 -21 -24 -24 -23 -23 -22 -21 -20 -19 -18 -18 -18 -18 -18 -17 -18 -17 -17 -18 -18 -17 -17
-5 -5 -5 -5 -5 -5 -5 -5 -5 -6 -11 -14 -15 -13 -13 -20 -23 -23 -22 -22 -21 -20 -19 -18 -17 -17 -18 -18 -17 -16 -17 -16 -16 -16 -16 -18 -17 -16
-8 -6 -5 -4 -5 -5 -5 -4 -5 -8 -13 -15 -14 -12 -18 -23 -23 -22 -21 -21 -20 -20 -19 -17 -17 -17 -17 -16 -15 -15 -16 -15 -16 -16 -15 -16 -17 -17
-9 -8 -7 -5 -5 -5 -5 -5 -6 -10 -14 -14 -12 -16 -23 -23 -22 -21 -20 -20 -19 -18 -16 -16 -16 -16 -16 -16 -15 -14 -14 -15 -16 -16 -16 -15 -16 -16
-9 -8 -9 -7 -5 -5 -5 -5 -7 -11 -14 -13 -13 -21 -23 -22 -21 -20 -19 -18 -17 -16 -16 -15 -13 -13 -12 -12 -13 -15 -13 -14 -14 -15 -15 -15 -15 -15
-6 -7 -9 -8 -6 -5 -5 -5 -6 -11 -13 -12 -16 -22 -22 -21 -20 -19 -18 -16 -14 -15 -15 -14 -13 -12 -12 -12 -13 -14 -13 -12 -12 -13 -13 -14 -15 -16
-6 -7 -8 -8 -7 -6 -6 -6 -6 -8 -13 -13 -21 -22 -21 -20 -19 -18 -16 -15 -15 -15 -14 -13 -13 -12 -12 -12 -12 -12 -13 -13 -13 -13 -13 -13 -12 -11
-6 -6 -8 -7 -6 -6 -6 -6 -6 -9 -12 -16 -22 -21 -20 -19 -18 -16 -15 -14 -14 -14 -13 -13 -12 -12 -12 -12 -12 -12 -12 -13 -13 -14 -14 -13 -13 -13